DAL8990 KATL-KEYW

Flight info

Callsign DAL8990
Flight time 1h 41m
Altitude 37000
Route BANNG3 LUCKK BULZI KRAKN1
Aircraft A319/M-FAA/L

Departure

Time 2026-05-03 23:47
Airport Hartsfield Jackson Atlanta International Airport (KATL)

Arrival

Time 2026-05-04 01:28
Airport Key West International Airport (KEYW)
Time Latitude Longitude Altitude Speed Heading
2026-05-03 23:22 33.63781 -84.42514 1007 ft 0 kts 270°
2026-05-03 23:37 33.63781 -84.42503 1007 ft 4 kts 268°
2026-05-03 23:37 33.63783 -84.42470 1007 ft 4 kts 259°
2026-05-03 23:37 33.63790 -84.42440 1007 ft 4 kts 241°
2026-05-03 23:38 33.63805 -84.42418 1007 ft 4 kts 191°
2026-05-03 23:38 33.63811 -84.42417 1007 ft 0 kts 180°
2026-05-03 23:40 33.63810 -84.42417 1007 ft 1 kts 180°
2026-05-03 23:41 33.63764 -84.42417 1007 ft 10 kts 180°
2026-05-03 23:41 33.63694 -84.42418 1007 ft 10 kts 180°
2026-05-03 23:41 33.63618 -84.42419 1007 ft 11 kts 180°
2026-05-03 23:41 33.63582 -84.42368 1007 ft 10 kts 94°
2026-05-03 23:42 33.63582 -84.42242 1007 ft 17 kts 90°
2026-05-03 23:42 33.63581 -84.42097 1007 ft 18 kts 90°
2026-05-03 23:42 33.63582 -84.41952 1006 ft 16 kts 90°
2026-05-03 23:42 33.63582 -84.41821 1006 ft 16 kts 90°
2026-05-03 23:43 33.63581 -84.41688 1006 ft 16 kts 91°
2026-05-03 23:43 33.63580 -84.41597 1006 ft 17 kts 91°
2026-05-03 23:43 33.63581 -84.41457 1005 ft 16 kts 89°
2026-05-03 23:43 33.63581 -84.41340 1005 ft 14 kts 90°
2026-05-03 23:44 33.63581 -84.41216 1006 ft 15 kts 90°
2026-05-03 23:44 33.63580 -84.41086 1006 ft 16 kts 90°
2026-05-03 23:44 33.63561 -84.40918 1007 ft 15 kts 139°
2026-05-03 23:44 33.63499 -84.40904 1007 ft 12 kts 176°
2026-05-03 23:45 33.63472 -84.40940 1007 ft 0 kts 269°
2026-05-03 23:46 33.63472 -84.40955 1007 ft 16 kts 269°
2026-05-03 23:46 33.63472 -84.41414 1006 ft 94 kts 270°
2026-05-03 23:46 33.63473 -84.42455 1008 ft 153 kts 270°
2026-05-03 23:46 33.63476 -84.43716 1337 ft 171 kts 271°
2026-05-03 23:47 33.63464 -84.45147 2137 ft 171 kts 271°
2026-05-03 23:47 33.63458 -84.46551 2879 ft 173 kts 271°
2026-05-03 23:47 33.63456 -84.48102 3326 ft 195 kts 271°
2026-05-03 23:47 33.63457 -84.49811 3715 ft 220 kts 271°
2026-05-03 23:48 33.63458 -84.51710 4235 ft 244 kts 271°
2026-05-03 23:48 33.63459 -84.53845 4990 ft 259 kts 270°
2026-05-03 23:48 33.63455 -84.56032 5951 ft 265 kts 270°
2026-05-03 23:48 33.63452 -84.58267 6931 ft 270 kts 271°
2026-05-03 23:49 33.63451 -84.60531 7903 ft 273 kts 271°
2026-05-03 23:49 33.63358 -84.62828 8881 ft 279 kts 262°
2026-05-03 23:49 33.62716 -84.65045 9851 ft 287 kts 244°
2026-05-03 23:49 33.61471 -84.66947 10747 ft 295 kts 224°
2026-05-03 23:50 33.59740 -84.68315 11642 ft 302 kts 208°
2026-05-03 23:50 33.57735 -84.69121 12558 ft 308 kts 193°
2026-05-03 23:50 33.55580 -84.69309 13467 ft 314 kts 179°
2026-05-03 23:50 33.53398 -84.68952 14314 ft 318 kts 173°
2026-05-03 23:51 33.51202 -84.68531 15091 ft 322 kts 173°
2026-05-03 23:51 33.48978 -84.68105 15857 ft 325 kts 174°
2026-05-03 23:51 33.46732 -84.67677 16625 ft 329 kts 174°
2026-05-03 23:51 33.44461 -84.67248 17378 ft 332 kts 174°
2026-05-03 23:52 33.42177 -84.66727 18124 ft 338 kts 167°
2026-05-03 23:52 33.39924 -84.65712 18478 ft 358 kts 159°
2026-05-03 23:52 33.37581 -84.64465 18661 ft 377 kts 158°
2026-05-03 23:52 33.35161 -84.63152 19154 ft 384 kts 158°
2026-05-03 23:53 33.32718 -84.61814 19752 ft 388 kts 158°
2026-05-03 23:53 33.30245 -84.60460 20383 ft 392 kts 158°
2026-05-03 23:53 33.27807 -84.59132 20996 ft 395 kts 158°
2026-05-03 23:53 33.25265 -84.57759 21629 ft 399 kts 158°
2026-05-03 23:54 33.22722 -84.56393 22247 ft 403 kts 158°
2026-05-03 23:54 33.20152 -84.55018 22858 ft 406 kts 158°
2026-05-03 23:54 33.17563 -84.53634 23468 ft 410 kts 158°
2026-05-03 23:54 33.14948 -84.52234 23994 ft 414 kts 158°
2026-05-03 23:55 33.12315 -84.50821 24485 ft 416 kts 158°
2026-05-03 23:55 33.09659 -84.49396 24977 ft 419 kts 158°
2026-05-03 23:55 33.06989 -84.47965 25475 ft 422 kts 158°
2026-05-03 23:55 33.04347 -84.46546 25947 ft 424 kts 158°
2026-05-03 23:56 33.01646 -84.45098 26409 ft 427 kts 159°
2026-05-03 23:56 32.98915 -84.43657 26876 ft 429 kts 161°
2026-05-03 23:56 32.96077 -84.42602 27343 ft 427 kts 171°
2026-05-03 23:56 32.93173 -84.42100 27797 ft 426 kts 180°
2026-05-03 23:57 32.90205 -84.42014 28263 ft 427 kts 182°
2026-05-03 23:57 32.87233 -84.41958 28720 ft 429 kts 182°
2026-05-03 23:57 32.84240 -84.41904 29170 ft 431 kts 182°
2026-05-03 23:57 32.81221 -84.41847 29616 ft 434 kts 182°
2026-05-03 23:58 32.78193 -84.41785 30046 ft 436 kts 182°
2026-05-03 23:58 32.75150 -84.41720 30429 ft 438 kts 183°
2026-05-03 23:58 32.72111 -84.41657 30883 ft 437 kts 184°
2026-05-03 23:58 32.69070 -84.41597 31274 ft 437 kts 184°
2026-05-03 23:59 32.66019 -84.41540 31656 ft 438 kts 184°
2026-05-03 23:59 32.62964 -84.41480 32011 ft 439 kts 184°
2026-05-03 23:59 32.59903 -84.41417 32358 ft 441 kts 184°
2026-05-03 23:59 32.56840 -84.41350 32797 ft 439 kts 184°
2026-05-04 00:00 32.53793 -84.41282 33298 ft 437 kts 185°
2026-05-04 00:00 32.50757 -84.41220 33795 ft 434 kts 185°
2026-05-04 00:00 32.47741 -84.41160 34266 ft 431 kts 186°
2026-05-04 00:00 32.44790 -84.41101 34705 ft 429 kts 186°
2026-05-04 00:01 32.41805 -84.41043 35072 ft 428 kts 186°
2026-05-04 00:01 32.38827 -84.40988 35405 ft 428 kts 186°
2026-05-04 00:01 32.35852 -84.40930 35730 ft 428 kts 186°
2026-05-04 00:01 32.32875 -84.40870 36046 ft 428 kts 186°
2026-05-04 00:02 32.29894 -84.40746 36347 ft 432 kts 182°
2026-05-04 00:02 32.26896 -84.40256 36633 ft 436 kts 179°
2026-05-04 00:02 32.23900 -84.39722 36921 ft 436 kts 179°
2026-05-04 00:02 32.20899 -84.39196 37060 ft 436 kts 180°
2026-05-04 00:03 32.14943 -84.38162 37111 ft 430 kts 180°
2026-05-04 00:03 32.09026 -84.37129 37095 ft 429 kts 180°
2026-05-04 00:04 32.03119 -84.36093 37098 ft 429 kts 180°
2026-05-04 00:04 31.97238 -84.35060 37101 ft 429 kts 180°
2026-05-04 00:05 31.91337 -84.34034 37074 ft 428 kts 180°
2026-05-04 00:05 31.85446 -84.33011 37104 ft 428 kts 180°
2026-05-04 00:06 31.79561 -84.31982 37113 ft 427 kts 180°
2026-05-04 00:06 31.73685 -84.30966 37121 ft 427 kts 180°
2026-05-04 00:07 31.67809 -84.29951 37119 ft 426 kts 180°
2026-05-04 00:07 31.61936 -84.28935 37096 ft 426 kts 181°
2026-05-04 00:08 31.56072 -84.27914 37124 ft 425 kts 181°
2026-05-04 00:08 31.50267 -84.26904 37135 ft 424 kts 181°
2026-05-04 00:09 31.44431 -84.25896 37137 ft 423 kts 181°
2026-05-04 00:09 31.38604 -84.24899 37091 ft 423 kts 182°
2026-05-04 00:10 31.32781 -84.23899 37099 ft 422 kts 182°
2026-05-04 00:10 31.26967 -84.22890 37105 ft 422 kts 182°
2026-05-04 00:11 31.21151 -84.21886 37113 ft 422 kts 182°
2026-05-04 00:11 31.15337 -84.20891 37116 ft 422 kts 182°
2026-05-04 00:12 31.09533 -84.19896 37086 ft 422 kts 182°
2026-05-04 00:12 31.03726 -84.18906 37099 ft 421 kts 182°
2026-05-04 00:13 30.97920 -84.17915 37109 ft 422 kts 182°
2026-05-04 00:13 30.92114 -84.16917 37120 ft 422 kts 182°
2026-05-04 00:14 30.86339 -84.15933 37123 ft 422 kts 182°
2026-05-04 00:14 30.80532 -84.14949 37081 ft 421 kts 183°
2026-05-04 00:15 30.74712 -84.13962 37103 ft 421 kts 183°
2026-05-04 00:15 30.68909 -84.12973 37113 ft 421 kts 183°
2026-05-04 00:16 30.63107 -84.11986 37113 ft 421 kts 183°
2026-05-04 00:16 30.57298 -84.11001 37115 ft 422 kts 183°
2026-05-04 00:17 30.51482 -84.10013 37123 ft 422 kts 183°
2026-05-04 00:17 30.45671 -84.09027 37122 ft 422 kts 183°
2026-05-04 00:18 30.39862 -84.08023 37122 ft 426 kts 180°
2026-05-04 00:18 30.36966 -84.07079 37114 ft 440 kts 171°
2026-05-04 00:18 30.34149 -84.05530 37121 ft 455 kts 161°
2026-05-04 00:19 30.28662 -84.01868 37117 ft 455 kts 161°
2026-05-04 00:19 30.23203 -83.98226 37083 ft 456 kts 162°
2026-05-04 00:20 30.17689 -83.94568 37097 ft 457 kts 162°
2026-05-04 00:20 30.12177 -83.90925 37085 ft 457 kts 162°
2026-05-04 00:21 30.06668 -83.87280 37105 ft 456 kts 162°
2026-05-04 00:21 30.01161 -83.83648 37109 ft 455 kts 162°
2026-05-04 00:22 29.95663 -83.80026 37065 ft 455 kts 163°
2026-05-04 00:22 29.90172 -83.76411 37078 ft 454 kts 163°
2026-05-04 00:23 29.84675 -83.72805 37089 ft 454 kts 163°
2026-05-04 00:23 29.79181 -83.69196 37091 ft 454 kts 163°
2026-05-04 00:24 29.73721 -83.65617 37089 ft 454 kts 163°
2026-05-04 00:24 29.68225 -83.62013 37089 ft 454 kts 163°
2026-05-04 00:25 29.62728 -83.58413 37098 ft 457 kts 163°
2026-05-04 00:25 29.57194 -83.54806 37100 ft 456 kts 163°
2026-05-04 00:26 29.51680 -83.51207 37095 ft 456 kts 164°
2026-05-04 00:26 29.46175 -83.47608 37104 ft 455 kts 164°
2026-05-04 00:27 29.40676 -83.44024 37096 ft 454 kts 164°
2026-05-04 00:27 29.35186 -83.40455 37052 ft 453 kts 164°
2026-05-04 00:28 29.29695 -83.36899 37067 ft 453 kts 164°
2026-05-04 00:28 29.24190 -83.33623 37074 ft 437 kts 173°
2026-05-04 00:29 29.18511 -83.31171 37078 ft 436 kts 173°
2026-05-04 00:29 29.12821 -83.28718 37081 ft 436 kts 173°
2026-05-04 00:30 29.08098 -83.26673 37080 ft 436 kts 173°
2026-05-04 00:30 29.02419 -83.24225 37090 ft 437 kts 174°
2026-05-04 00:31 28.96734 -83.21773 37099 ft 436 kts 174°
2026-05-04 00:31 28.90141 -83.18934 37101 ft 436 kts 174°
2026-05-04 00:32 28.85397 -83.16881 37103 ft 435 kts 174°
2026-05-04 00:32 28.79730 -83.14442 37088 ft 434 kts 174°
2026-05-04 00:33 28.71314 -83.10846 37074 ft 431 kts 175°
2026-05-04 00:34 28.65702 -83.08455 37096 ft 431 kts 174°
2026-05-04 00:34 28.60097 -83.06053 37096 ft 430 kts 174°
2026-05-04 00:35 28.54486 -83.03649 37094 ft 429 kts 174°
2026-05-04 00:35 28.48897 -83.01261 37093 ft 429 kts 175°
2026-05-04 00:36 28.43336 -82.98901 37070 ft 430 kts 175°
2026-05-04 00:36 28.37717 -82.96506 37078 ft 430 kts 175°
2026-05-04 00:37 28.32106 -82.94115 37081 ft 430 kts 175°
2026-05-04 00:37 28.29296 -82.93156 37080 ft 413 kts 183°
2026-05-04 00:37 28.26507 -82.92646 37081 ft 404 kts 187°
2026-05-04 00:38 28.20931 -82.91767 37077 ft 404 kts 187°
2026-05-04 00:38 28.15351 -82.90881 37057 ft 406 kts 187°
2026-05-04 00:39 28.09731 -82.89984 37068 ft 407 kts 187°
2026-05-04 00:39 28.04152 -82.89085 37074 ft 408 kts 186°
2026-05-04 00:40 27.98534 -82.88172 37079 ft 407 kts 187°
2026-05-04 00:40 27.92921 -82.87272 37081 ft 407 kts 187°
2026-05-04 00:41 27.87309 -82.86371 37022 ft 407 kts 186°
2026-05-04 00:41 27.81692 -82.85473 37024 ft 407 kts 186°
2026-05-04 00:42 27.76072 -82.84579 37022 ft 408 kts 186°
2026-05-04 00:42 27.70475 -82.83594 37027 ft 411 kts 185°
2026-05-04 00:43 27.64825 -82.82478 37036 ft 412 kts 184°
2026-05-04 00:43 27.59167 -82.81355 37042 ft 412 kts 185°
2026-05-04 00:44 27.53503 -82.80270 37047 ft 412 kts 185°
2026-05-04 00:44 27.47846 -82.79195 37053 ft 412 kts 185°
2026-05-04 00:45 27.42193 -82.78136 37058 ft 412 kts 185°
2026-05-04 00:45 27.36567 -82.77076 37041 ft 412 kts 184°
2026-05-04 00:46 27.30907 -82.76004 37051 ft 413 kts 184°
2026-05-04 00:46 27.25236 -82.74929 37048 ft 415 kts 184°
2026-05-04 00:47 27.19523 -82.73840 37058 ft 416 kts 184°
2026-05-04 00:47 27.13814 -82.72765 37060 ft 416 kts 184°
2026-05-04 00:48 27.08103 -82.71694 37060 ft 416 kts 184°
2026-05-04 00:48 27.02432 -82.70620 37065 ft 416 kts 184°
2026-05-04 00:49 26.96725 -82.69466 37025 ft 424 kts 178°
2026-05-04 00:49 26.93886 -82.68339 37027 ft 443 kts 167°
2026-05-04 00:49 26.91171 -82.66567 37030 ft 462 kts 156°
2026-05-04 00:50 26.86023 -82.62057 37037 ft 467 kts 154°
2026-05-04 00:50 26.83454 -82.59808 36842 ft 468 kts 154°
2026-05-04 00:50 26.80912 -82.57590 36596 ft 468 kts 154°
2026-05-04 00:50 26.78342 -82.55354 36341 ft 468 kts 154°
2026-05-04 00:51 26.75799 -82.53144 36112 ft 468 kts 154°
2026-05-04 00:51 26.73226 -82.50909 35869 ft 468 kts 154°
2026-05-04 00:51 26.70659 -82.48679 35632 ft 468 kts 154°
2026-05-04 00:51 26.68090 -82.46450 35397 ft 468 kts 154°
2026-05-04 00:52 26.65519 -82.44218 35092 ft 468 kts 153°
2026-05-04 00:52 26.62954 -82.41987 34837 ft 467 kts 153°
2026-05-04 00:52 26.60391 -82.39760 34574 ft 466 kts 153°
2026-05-04 00:52 26.57826 -82.37536 34307 ft 466 kts 153°
2026-05-04 00:53 26.55263 -82.35317 34056 ft 466 kts 153°
2026-05-04 00:53 26.52942 -82.33308 33800 ft 466 kts 153°
2026-05-04 00:53 26.50351 -82.31062 33510 ft 465 kts 153°
2026-05-04 00:53 26.47832 -82.28874 33231 ft 464 kts 153°
2026-05-04 00:54 26.45285 -82.26665 32956 ft 463 kts 153°
2026-05-04 00:54 26.42918 -82.24618 32698 ft 462 kts 153°
2026-05-04 00:54 26.40384 -82.22432 32427 ft 461 kts 153°
2026-05-04 00:54 26.37846 -82.20244 32150 ft 460 kts 153°
2026-05-04 00:55 26.35317 -82.18063 31881 ft 459 kts 153°
2026-05-04 00:55 26.32796 -82.15888 31551 ft 458 kts 152°
2026-05-04 00:55 26.30282 -82.13721 31177 ft 456 kts 152°
2026-05-04 00:55 26.27779 -82.11563 30801 ft 455 kts 152°
2026-05-04 00:56 26.25276 -82.09407 30433 ft 454 kts 152°
2026-05-04 00:56 26.22781 -82.07263 30059 ft 452 kts 152°
2026-05-04 00:56 26.20296 -82.05123 29623 ft 450 kts 152°
2026-05-04 00:56 26.17827 -82.02998 29194 ft 447 kts 152°
2026-05-04 00:57 26.15375 -82.00890 28770 ft 443 kts 152°
2026-05-04 00:57 26.12946 -81.98806 28354 ft 439 kts 152°
2026-05-04 00:57 26.10535 -81.96737 27942 ft 436 kts 151°
2026-05-04 00:57 26.08145 -81.94685 27539 ft 432 kts 151°
2026-05-04 00:58 26.05772 -81.92654 27139 ft 428 kts 152°
2026-05-04 00:58 26.03420 -81.90641 26745 ft 425 kts 151°
2026-05-04 00:58 26.01088 -81.88645 26332 ft 422 kts 151°
2026-05-04 00:58 25.98767 -81.86660 25952 ft 419 kts 151°
2026-05-04 00:59 25.96467 -81.84695 25577 ft 416 kts 151°
2026-05-04 00:59 25.94180 -81.82742 25205 ft 413 kts 151°
2026-05-04 00:59 25.91912 -81.80805 24838 ft 410 kts 150°
2026-05-04 00:59 25.89665 -81.78887 24476 ft 406 kts 151°
2026-05-04 01:00 25.87338 -81.77180 24115 ft 398 kts 156°
2026-05-04 01:00 25.84994 -81.75568 23761 ft 395 kts 156°
2026-05-04 01:00 25.82699 -81.73989 23371 ft 392 kts 156°
2026-05-04 01:00 25.80390 -81.72399 22953 ft 389 kts 156°
2026-05-04 01:01 25.78097 -81.70821 22542 ft 387 kts 156°
2026-05-04 01:01 25.75816 -81.69252 22135 ft 385 kts 156°
2026-05-04 01:01 25.73547 -81.67694 21732 ft 382 kts 156°
2026-05-04 01:01 25.71293 -81.66146 21336 ft 380 kts 156°
2026-05-04 01:02 25.69039 -81.64598 20910 ft 380 kts 155°
2026-05-04 01:02 25.66797 -81.63059 20524 ft 378 kts 155°
2026-05-04 01:02 25.64566 -81.61529 20133 ft 376 kts 155°
2026-05-04 01:02 25.62351 -81.60007 19766 ft 374 kts 155°
2026-05-04 01:03 25.60141 -81.58489 19395 ft 371 kts 155°
2026-05-04 01:03 25.57955 -81.56993 19031 ft 369 kts 155°
2026-05-04 01:03 25.55781 -81.55504 18670 ft 366 kts 155°
2026-05-04 01:03 25.53584 -81.54126 18308 ft 359 kts 162°
2026-05-04 01:04 25.51260 -81.53252 17897 ft 348 kts 174°
2026-05-04 01:04 25.48894 -81.52919 17485 ft 338 kts 185°
2026-05-04 01:04 25.46582 -81.53092 17086 ft 330 kts 195°
2026-05-04 01:04 25.44390 -81.53722 16685 ft 322 kts 205°
2026-05-04 01:05 25.42327 -81.54661 16293 ft 320 kts 207°
2026-05-04 01:05 25.40274 -81.55616 15906 ft 318 kts 207°
2026-05-04 01:05 25.38241 -81.56559 15509 ft 316 kts 207°
2026-05-04 01:05 25.36225 -81.57494 15131 ft 313 kts 207°
2026-05-04 01:06 25.34221 -81.58421 14757 ft 311 kts 207°
2026-05-04 01:06 25.32232 -81.59338 14388 ft 309 kts 206°
2026-05-04 01:06 25.30256 -81.60250 14023 ft 307 kts 206°
2026-05-04 01:06 25.28323 -81.61141 13650 ft 305 kts 206°
2026-05-04 01:07 25.26337 -81.62055 13225 ft 303 kts 206°
2026-05-04 01:07 25.24395 -81.62949 12825 ft 301 kts 206°
2026-05-04 01:07 25.22482 -81.63830 12588 ft 294 kts 206°
2026-05-04 01:07 25.20608 -81.64692 12363 ft 289 kts 206°
2026-05-04 01:08 25.18757 -81.65544 12139 ft 287 kts 206°
2026-05-04 01:08 25.16941 -81.66382 11928 ft 286 kts 206°
2026-05-04 01:08 25.15106 -81.67230 11712 ft 286 kts 206°
2026-05-04 01:08 25.13275 -81.68077 11497 ft 285 kts 206°
2026-05-04 01:09 25.11445 -81.68923 11305 ft 285 kts 206°
2026-05-04 01:09 25.09619 -81.69765 11098 ft 284 kts 206°
2026-05-04 01:09 25.07794 -81.70605 10909 ft 284 kts 206°
2026-05-04 01:09 25.05970 -81.71444 10721 ft 284 kts 206°
2026-05-04 01:10 25.04148 -81.72283 10536 ft 283 kts 206°
2026-05-04 01:10 25.02335 -81.73118 10345 ft 283 kts 206°
2026-05-04 01:10 25.00518 -81.73954 10159 ft 282 kts 206°
2026-05-04 01:10 24.98708 -81.74784 9976 ft 281 kts 206°
2026-05-04 01:11 24.96904 -81.75612 9776 ft 280 kts 206°
2026-05-04 01:11 24.95104 -81.76437 9571 ft 280 kts 206°
2026-05-04 01:11 24.93311 -81.77260 9367 ft 279 kts 206°
2026-05-04 01:11 24.91525 -81.78083 9178 ft 278 kts 206°
2026-05-04 01:12 24.89740 -81.78904 9005 ft 277 kts 205°
2026-05-04 01:12 24.87855 -81.79661 8832 ft 316 kts 197°
2026-05-04 01:12 24.85545 -81.80107 8658 ft 359 kts 191°
2026-05-04 01:12 24.83112 -81.80514 8484 ft 344 kts 191°
2026-05-04 01:13 24.80812 -81.80880 8311 ft 325 kts 191°
2026-05-04 01:13 24.78620 -81.81227 8138 ft 308 kts 191°
2026-05-04 01:13 24.76579 -81.81555 7955 ft 286 kts 191°
2026-05-04 01:13 24.74651 -81.81870 7794 ft 277 kts 192°
2026-05-04 01:14 24.72754 -81.82188 7626 ft 275 kts 192°
2026-05-04 01:14 24.70859 -81.82509 7456 ft 275 kts 192°
2026-05-04 01:14 24.68974 -81.82828 7291 ft 273 kts 192°
2026-05-04 01:14 24.67094 -81.83145 7126 ft 273 kts 192°
2026-05-04 01:15 24.65220 -81.83459 6954 ft 272 kts 192°
2026-05-04 01:15 24.63351 -81.83769 6798 ft 271 kts 192°
2026-05-04 01:15 24.61485 -81.84077 6636 ft 270 kts 192°
2026-05-04 01:15 24.59633 -81.84383 6475 ft 269 kts 192°
2026-05-04 01:16 24.57780 -81.84691 6295 ft 268 kts 192°
2026-05-04 01:16 24.56006 -81.84982 6135 ft 256 kts 191°
2026-05-04 01:16 24.54254 -81.85025 5959 ft 248 kts 182°
2026-05-04 01:16 24.52564 -81.84972 5789 ft 239 kts 182°
2026-05-04 01:17 24.51470 -81.84942 5676 ft 237 kts 182°
2026-05-04 01:17 24.49824 -81.84898 5503 ft 236 kts 182°
2026-05-04 01:17 24.48191 -81.84688 5332 ft 240 kts 164°
2026-05-04 01:17 24.46831 -81.83621 5166 ft 248 kts 130°
2026-05-04 01:18 24.46220 -81.81849 5000 ft 255 kts 95°
2026-05-04 01:18 24.46284 -81.79272 4774 ft 254 kts 90°
2026-05-04 01:18 24.46304 -81.77963 4661 ft 253 kts 90°
2026-05-04 01:18 24.46318 -81.76047 4485 ft 251 kts 91°
2026-05-04 01:19 24.46328 -81.74127 4322 ft 251 kts 91°
2026-05-04 01:19 24.46338 -81.72215 4170 ft 251 kts 91°
2026-05-04 01:19 24.46350 -81.70300 4028 ft 251 kts 90°
2026-05-04 01:19 24.46363 -81.68387 3882 ft 249 kts 90°
2026-05-04 01:20 24.46377 -81.66480 3734 ft 249 kts 91°
2026-05-04 01:20 24.46393 -81.64600 3591 ft 247 kts 90°
2026-05-04 01:20 24.46409 -81.62728 3444 ft 245 kts 90°
2026-05-04 01:20 24.46426 -81.60858 3300 ft 244 kts 90°
2026-05-04 01:21 24.46444 -81.59005 3148 ft 239 kts 90°
2026-05-04 01:21 24.46586 -81.57225 3006 ft 230 kts 71°
2026-05-04 01:21 24.47422 -81.55800 2823 ft 220 kts 38°
2026-05-04 01:21 24.48744 -81.55107 2728 ft 208 kts
2026-05-04 01:22 24.50160 -81.55064 2572 ft 203 kts 358°
2026-05-04 01:22 24.51568 -81.55081 2446 ft 202 kts 357°
2026-05-04 01:22 24.52967 -81.55095 2324 ft 201 kts 357°
2026-05-04 01:22 24.54350 -81.55247 2191 ft 199 kts 338°
2026-05-04 01:23 24.55405 -81.56143 2067 ft 189 kts 303°
2026-05-04 01:23 24.55782 -81.57446 2001 ft 173 kts 271°
2026-05-04 01:23 24.55762 -81.58707 1929 ft 156 kts 269°
2026-05-04 01:23 24.55751 -81.59841 1862 ft 144 kts 269°
2026-05-04 01:24 24.55743 -81.60912 1791 ft 141 kts 269°
2026-05-04 01:24 24.55734 -81.61980 1709 ft 139 kts 269°
2026-05-04 01:24 24.55726 -81.63026 1649 ft 138 kts 269°
2026-05-04 01:24 24.55718 -81.64069 1585 ft 133 kts 269°
2026-05-04 01:25 24.55709 -81.65068 1535 ft 130 kts 269°
2026-05-04 01:25 24.55701 -81.66054 1531 ft 128 kts 270°
2026-05-04 01:25 24.55692 -81.67025 1532 ft 127 kts 269°
2026-05-04 01:25 24.55683 -81.67990 1371 ft 125 kts 270°
2026-05-04 01:26 24.55675 -81.68953 1184 ft 125 kts 269°
2026-05-04 01:26 24.55668 -81.69904 1012 ft 124 kts 269°
2026-05-04 01:26 24.55661 -81.70851 857 ft 125 kts 270°
2026-05-04 01:26 24.55655 -81.71821 657 ft 128 kts 271°
2026-05-04 01:27 24.55646 -81.72798 534 ft 127 kts 271°
2026-05-04 01:27 24.55638 -81.73773 306 ft 129 kts 271°
2026-05-04 01:27 24.55624 -81.74764 143 ft 131 kts 272°
2026-05-04 01:27 24.55619 -81.75731 15 ft 113 kts 270°
2026-05-04 01:28 24.55584 -81.76210 7 ft 11 kts 218°
2026-05-04 01:28 24.55544 -81.76204 8 ft 6 kts 160°
2026-05-04 01:28 24.55529 -81.76166 8 ft 6 kts 90°
2026-05-04 01:28 24.55528 -81.76131 8 ft 4 kts 92°
2026-05-04 01:29 24.55525 -81.76078 8 ft 15 kts 93°
2026-05-04 01:29 24.55526 -81.75951 11 ft 17 kts 90°
2026-05-04 01:29 24.55527 -81.75828 14 ft 16 kts 89°
2026-05-04 01:29 24.55528 -81.75707 15 ft 16 kts 89°
2026-05-04 01:30 24.55529 -81.75576 15 ft 18 kts 89°
2026-05-04 01:30 24.55531 -81.75502 16 ft 0 kts 88°
2026-05-04 01:32 24.55531 -81.75484 16 ft 6 kts 88°
2026-05-04 01:32 24.55533 -81.75430 17 ft 8 kts 88°
2026-05-04 01:33 24.55505 -81.75384 16 ft 4 kts 174°
2026-05-04 01:33 24.55495 -81.75393 15 ft 1 kts 222°
2026-05-04 01:33 24.55484 -81.75405 15 ft 2 kts 225°
2026-05-04 01:33 24.55478 -81.75412 14 ft 1 kts 228°
2026-05-04 01:34 24.55475 -81.75416 14 ft 0 kts 228°
2026-05-04 01:34 24.55474 -81.75417 14 ft 0 kts 229°
2026-05-04 01:34 24.55473 -81.75418 14 ft 0 kts 228°
2026-05-04 01:34 24.55473 -81.75419 14 ft 0 kts 228°